Weather History for Baker, MT

Change the Weather History Date:

Tuesday, October 8, 2013

  Actual Average Record
Temperature  
Mean Temperature 51 °F -  
Max Temperature 64 °F 35 °F 82 °F (2010)
Min Temperature 39 °F 24 °F 19 °F (2000)
Degree Days  
Heating Degree Days 14    
Growing Degree Days 1 (Base 50)    
Moisture  
Dew Point 33 °F    
Average Humidity 54    
Maximum Humidity 82    
Minimum Humidity 26    
Precipitation  
Precipitation 0.00 in - - ()
Sea Level Pressure  
Sea Level Pressure 29.76 in    
Wind  
Wind Speed 5 mph (NW)    
Max Wind Speed 15 mph    
Max Gust Speed -    
Visibility 10 miles    
Events      
Averages and records for this station are not official NWS values.
T = Trace of Precipitation, MM = Missing Value Source: NWS Daily Summary

Daily Weather History Graph

Daily Weather History Graph

Search for Another Location

Airport:

Trip Planner

Search our weather history database for the weather conditions in past years. The results will help you decide how hot, cold, wet, or windy it might be!

Date:

Astronomy

Oct. 08, 2013 Rise Set
Actual Time 7:05 AM MDT 6:22 PM MDT
Civil Twilight 6:35 AM MDT 6:52 PM MDT
Nautical Twilight 6:00 AM MDT 7:27 PM MDT
Astronomical Twilight 5:25 AM MDT 8:02 PM MDT
Moon 11:15 AM MDT (10/8) 8:48 PM MDT (10/8)
Length of Visible Light 12h 17m
Length of Day
11h 17m
Waxing Crescent, 16% of the Moon is Illuminated
Oct 8
Waxing Crescent
Oct 11
First Quarter
Oct 18
Full
Oct 26
Last Quarter
Nov 3
New

Hourly Weather History & Observations

Time (MDT) Temp. Windchill Dew Point Humidity Pressure Visibility Wind Dir Wind Speed Gust Speed Precip Events Conditions
12:51 AM 44.1 °F - 37.9 °F 79% 29.62 in 10.0 mi Calm Calm - N/A   Clear
1:51 AM 43.0 °F - 37.9 °F 82% 29.63 in 10.0 mi Calm Calm - N/A   Clear
2:51 AM 46.0 °F - 39.0 °F 76% 29.62 in 10.0 mi Calm Calm - N/A   Clear
3:51 AM 46.9 °F - 39.0 °F 74% 29.63 in 10.0 mi West 3.5 mph - N/A   Clear
4:51 AM 48.0 °F - 39.9 °F 74% 29.65 in 10.0 mi West 12.7 mph - N/A   Clear
5:51 AM 46.9 °F - 39.0 °F 74% 29.69 in 10.0 mi WNW 8.1 mph - N/A   Clear
6:51 AM 45.0 °F 41.8 °F 37.0 °F 74% 29.72 in 10.0 mi WNW 5.8 mph - N/A   Clear
7:51 AM 45.0 °F 39.3 °F 35.1 °F 68% 29.74 in 10.0 mi West 11.5 mph - N/A   Clear
8:51 AM 51.1 °F - 35.1 °F 54% 29.76 in 10.0 mi WNW 5.8 mph - N/A   Clear
9:51 AM 57.0 °F - 30.0 °F 36% 29.75 in 10.0 mi NNW 12.7 mph - N/A   Clear
10:51 AM 60.1 °F - 28.0 °F 30% 29.76 in 10.0 mi NNW 15.0 mph - N/A   Clear
11:51 AM 62.1 °F - 28.9 °F 29% 29.75 in 10.0 mi NNW 15.0 mph - N/A   Clear
12:51 PM 63.0 °F - 28.9 °F 28% 29.75 in 10.0 mi NNW 11.5 mph - N/A   Clear
1:51 PM 63.0 °F - 28.0 °F 27% 29.73 in 10.0 mi NNW 10.4 mph - N/A   Clear
2:51 PM 63.0 °F - 28.0 °F 27% 29.73 in 10.0 mi NNW 8.1 mph - N/A   Clear
3:51 PM 63.0 °F - 28.0 °F 27% 29.74 in 10.0 mi NNW 8.1 mph - N/A   Clear
4:51 PM 63.0 °F - 27.0 °F 26% 29.75 in 10.0 mi NNW 6.9 mph - N/A   Clear
5:51 PM 57.9 °F - 30.0 °F 35% 29.78 in 10.0 mi North 5.8 mph - N/A   Clear
6:51 PM 52.0 °F - 30.9 °F 45% 29.83 in 10.0 mi NNW 4.6 mph - N/A   Clear
7:51 PM 48.9 °F - 32.0 °F 52% 29.88 in 10.0 mi Calm Calm - N/A   Clear
8:51 PM 46.0 °F - 36.0 °F 68% 29.89 in 10.0 mi Calm Calm - N/A   Clear
9:51 PM 39.9 °F - 32.0 °F 73% 29.91 in 10.0 mi Calm Calm - N/A   Clear
10:51 PM 44.1 °F - 33.1 °F 65% 29.91 in 10.0 mi Calm Calm - N/A   Clear
11:51 PM 44.1 °F - 33.1 °F 65% 29.93 in 10.0 mi Calm Calm - N/A   Mostly Cloudy